Weather in Svitlovodsk

Ukraine / Kirovohrad Region     49°03′08″N   33°12′18″E
temp.,
°C
wind,
m/s
gust,
m/s
humid.,
%
clouds,
%
prec.,
mm/h
press.,
hPa
HPBL,
m
13 may, thu
thu1300:00+8ne119089 0.1 101155
03:00+8ssw1187100 0.2 101138
06:00+8sw118638 0.1 101265
09:00+12s336699 0.1 1012704
12:00+15sse355199 0.0 10121365
15:00+18s5645100 0.0 10121564
18:00+18s4656100 0.0 10111048
21:00+14sse486586 0.0 1011196
14 may, fri
fri1400:00+13se41066100 0.0 1010220
03:00+11se3582100 0.0 101082
06:00+12se358552 0.0 1009118
09:00+17se467055 0.0 1009553
12:00+21s6751100 0.0 10081120
15:00+23s794810 0.0 10081674
18:00+20s4966100 0.1 1008238
21:00+16ssw4117919 0.6 1009242
15 may, sat
sat1500:00+13sw49877 0.0 1010156
03:00+12sw369255 0.0 1010105
06:00+12ssw34917 0.0 1011103
09:00+18sw347099 0.0 1012529
12:00+21sw46575 1.3 10121406
15:00+22sw5752100 1.7 10111696
18:00+21w355834 0.1 10111184
21:00+17ne227485 0.1 101213
16 may, sun
sun1600:00+15ne2283100 0.3 101213
03:00+14ene228562 0.3 101224
06:00+14e228388 0.0 101238
09:00+19e356899 0.0 1012409
12:00+23e4652100 0.0 10111318
15:00+25e564782 0.0 10092049
18:00+24ene575517 0.0 1008799
21:00+18e61484100 1.5 1006387
17 may, mon
mon1700:00+16nne1297100 8.6 100590
03:00+16ne3697100 9.9 1003154
06:00+16se3794100 0.4 1002189
09:00+19s2482100 1.2 1002559
12:00+20w4479100 0.2 1003756
15:00+19w347991 0.7 1004495
18:00+21wsw456447 0.0 10041068
21:00+16ssw358799 1.3 100691